KA2QBS Weather Reports


time (UTC)temp
C
wind
direction
speed
KPH
gust
KPH
rain 1hr
cm
rain 24hr
cm
rain mn
cm
humidity
%
barometer
mb
20260504081551 5 153 1.6 6.4 0.00 0.00 0.00 96 1011.0
20260504044536 6 174 1.6 4.8 0.00 0.00 0.00 95 1011.7
20260504043036 6 300 0.0 0.0 0.00 0.00 0.00 94 1011.9
20260504041529 6 300 0.0 0.0 0.00 0.00 0.00 94 1012.3
20260504040027 6 300 0.0 0.0 0.00 0.00 0.00 93 1012.3
20260504034524 6 300 0.0 0.0 0.00 0.00 0.00 91 1012.1
20260504033023 6 300 0.0 0.0 0.00 0.00 0.00 90 1012.2
20260504031523 6 300 0.0 1.6 0.00 0.00 0.00 89 1012.5
20260504030024 6 301 1.6 16.1 0.00 0.00 0.00 87 1012.7
20260504024531 7 286 0.0 0.0 0.00 0.00 0.00 86 1013.0
20260504023021 7 286 0.0 0.0 0.00 0.00 0.00 85 1012.8
20260504021524 7 286 0.0 0.0 0.00 0.00 0.00 80 1012.8
20260504020020 7 286 0.0 0.0 0.00 0.00 0.00 75 1012.7
20260504014520 8 286 0.0 0.0 0.00 0.00 0.00 72 1012.6
20260504013031 8 286 0.0 0.0 0.00 0.00 0.00 69 1012.6
20260504011519 8 286 0.0 1.6 0.00 0.00 0.00 66 1012.5
20260504010018 9 281 0.0 16.1 0.00 0.00 0.00 64 1012.5
20260504004518 9 313 0.0 4.8 0.00 0.00 0.00 61 1012.5
20260504003033 9 281 1.6 11.3 0.00 0.00 0.00 60 1012.5
20260504001516 9 265 0.0 3.2 0.00 0.00 0.00 56 1012.2
20260504000015 10 265 0.0 9.7 0.00 0.00 0.00 54 1012.1
20260503234515 10 283 1.6 8.0 0.00 0.00 0.00 53 1012.0
20260503233014 10 274 3.2 17.7 0.00 0.00 0.00 51 1011.9
20260503231515 10 299 0.0 12.9 0.00 0.00 0.00 50 1011.9
20260503230014 10 322 6.4 16.1 0.00 0.00 0.00 49 1012.0
20260503224524 11 302 6.4 14.5 0.00 0.00 0.00 45 1011.7
20260503223114 11 275 3.2 12.9 0.00 0.00 0.00 43 1011.6
20260503221512 11 329 3.2 20.9 0.00 0.00 0.00 44 1011.4
20260503220019 11 275 4.8 19.3 0.00 0.00 0.00 43 1011.4
20260503214511 11 266 9.7 29.0 0.00 0.00 0.00 42 1011.3
20260503213011 11 276 6.4 17.7 0.00 0.00 0.00 38 1011.5
20260503211512 11 330 6.4 17.7 0.00 0.00 0.00 38 1011.3
20260503210011 11 311 4.8 12.9 0.00 0.00 0.00 41 1011.3
20260503204508 11 271 11.3 29.0 0.00 0.00 0.00 37 1011.3
20260503203008 12 301 11.3 22.5 0.00 0.00 0.00 33 1011.4
20260503201506 12 330 3.2 24.1 0.00 0.00 0.00 37 1011.4
20260503200007 12 299 8.0 29.0 0.00 0.00 0.00 34 1011.5
20260503194503 11 291 11.3 32.2 0.00 0.00 0.00 35 1011.5
20260503193001 11 312 12.9 27.4 0.00 0.00 0.00 37 1012.0
20260503191559 11 257 8.0 25.7 0.00 0.00 0.00 37 1012.1
20260503190056 11 337 4.8 20.9 0.00 0.00 0.00 41 1012.3
20260503184610 10 270 17.7 35.4 0.00 0.00 0.00 38 1012.6
20260503183100 10 306 9.7 30.6 0.00 0.00 0.00 38 1012.7
20260503181555 10 275 11.3 24.1 0.00 0.00 0.00 39 1013.0
20260503180052 10 312 6.4 22.5 0.00 0.00 0.00 43 1013.0
20260503174548 10 305 4.8 16.1 0.00 0.00 0.00 44 1012.9
20260503173047 10 332 4.8 16.1 0.00 0.00 0.00 42 1013.1
20260503171604 9 338 3.2 22.5 0.00 0.00 0.00 45 1013.2